This is the latest recevied weather packets stored in our database for station/object DK0KTL-4. If no packets are shown the sender has not sent any weather packets the latest 10 day(s).
| Time | Temp. | Humidity | Pressure | Rain* | Wind** | Luminosity | Snow |
|---|---|---|---|---|---|---|---|
| 1777733513 | 28.33° C | 23% | 1017.3 hPa | 0 mm | - | - | - |
| 1777733212 | 27.78° C | 26% | 1017.4 hPa | 0 mm | - | - | - |
| 1777732011 | 27.78° C | 26% | 1017.6 hPa | 0 mm | - | - | - |
| 1777731711 | 27.78° C | 24% | 1017.6 hPa | 0 mm | - | - | - |
| 1777731411 | 27.22° C | 25% | 1017.6 hPa | 0 mm | - | - | - |
| 1777729909 | 27.22° C | 25% | 1017.9 hPa | 0 mm | - | - | - |
| 1777729609 | 26.67° C | 29% | 1018 hPa | 0 mm | - | - | - |
| 1777729309 | 26.67° C | 25% | 1018.1 hPa | 0 mm | - | - | - |
| 1777729008 | 26.67° C | 25% | 1018.1 hPa | 0 mm | - | - | - |
| 1777728708 | 26.67° C | 25% | 1018.1 hPa | 0 mm | - | - | - |
| 1777728408 | 27.78° C | 25% | 1018.3 hPa | 0 mm | - | - | - |
| 1777727207 | 26.11° C | 34% | 1018.8 hPa | 0 mm | - | - | - |
| 1777726606 | 25.56° C | 29% | 1018.9 hPa | 0 mm | - | - | - |
| 1777726306 | 25.56° C | 29% | 1018.9 hPa | 0 mm | - | - | - |
| 1777725405 | 25.56° C | 28% | 1019.3 hPa | 0 mm | - | - | - |
| 1777724804 | 25.56° C | 32% | 1019.5 hPa | 0 mm | - | - | - |
| 1777722702 | 25° C | 28% | 1020 hPa | 0 mm | - | - | - |
| 1777722402 | 25° C | 30% | 1020 hPa | 0 mm | - | - | - |
| 1777722102 | 25° C | 30% | 1020.1 hPa | 0 mm | - | - | - |
| 1777721501 | 24.44° C | 29% | 1020.2 hPa | 0 mm | - | - | - |
| 1777721201 | 24.44° C | 33% | 1020.3 hPa | 0 mm | - | - | - |
| 1777720600 | 24.44° C | 30% | 1020.4 hPa | 0 mm | - | - | - |
| 1777720300 | 23.89° C | 33% | 1020.5 hPa | 0 mm | - | - | - |
| 1777719699 | 23.89° C | 31% | 1020.5 hPa | 0 mm | - | - | - |
| 1777718198 | 23.33° C | 33% | 1020.7 hPa | 0 mm | - | - | - |
* Rain latest hour (hover to see other rain measurements)
** Current wind speed in m/s (hover to see current wind gust speed)